Ketchikan, AK

4:39 PM AKST on January 23, 2018 (GMT -0900)
Ketchikan International

Weather History for PAKT - December, 2017

Change the Weather History Date:

Tuesday, December 19, 2017

  Actual Average Record
Temperature  
Mean Temperature 32 °F -  
Max Temperature 35 °F 40 °F 57 °F (1969)
Min Temperature 30 °F 30 °F 9 °F (2008)
Degree Days  
Heating Degree Days 32    
Moisture  
Dew Point 29 °F    
Average Humidity 84    
Maximum Humidity 100    
Minimum Humidity 73    
Precipitation  
Precipitation 0.00 in - - ()
Sea Level Pressure  
Sea Level Pressure 30.18 in    
Wind  
Wind Speed 8 mph (NW)    
Max Wind Speed 12 mph    
Max Gust Speed 20 mph    
Visibility 10 miles    
Events      
Averages and records for this station are not official NWS values.
T = Trace of Precipitation, MM = Missing Value Source: NWS Daily Summary

Daily Weather History Graph

Daily Weather History Graph

Search for Another Location

Airport or City:

Trip Planner

Search our weather history database for the weather conditions in past years. The results will help you decide how hot, cold, wet, or windy it might be!

Date:

Astronomy

Dec. 19, 2017 Rise Set
Actual Time 8:11 AM AKST 3:17 PM AKST
Civil Twilight 7:25 AM AKST 4:03 PM AKST
Nautical Twilight 6:36 AM AKST 4:51 PM AKST
Astronomical Twilight 5:51 AM AKST 5:36 PM AKST
Moon 9:00 AM AKST (12/19) 5:00 PM AKST (12/19)
Length of Visible Light 8h 38m
Length of Day
7h 05m
New Moon, 2% of the Moon is Illuminated
Dec 19
New Moon
Dec 26
First Quarter
Jan 1
Full
Jan 8
Last Quarter
Jan 16
New

Hourly Weather History & Observations

Time (AKST) Temp. Windchill Dew Point Humidity Pressure Visibility Wind Dir Wind Speed Gust Speed Precip Events Conditions
12:53 AM 34.0 °F 28.8 °F 34.0 °F 100% 30.09 in 10.0 mi NNW 5.8 mph - 0.00 in   Overcast
1:53 AM 35.1 °F 27.9 °F 33.1 °F 92% 30.09 in 10.0 mi NW 9.2 mph - N/A   Mostly Cloudy
2:53 AM 34.0 °F 26.0 °F 33.1 °F 96% 30.09 in 10.0 mi NW 10.4 mph - N/A   Clear
3:53 AM 35.1 °F 28.6 °F 32.0 °F 89% 30.10 in 10.0 mi WNW 8.1 mph - N/A   Clear
4:53 AM 34.0 °F 26.0 °F 32.0 °F 92% 30.11 in 10.0 mi NW 10.4 mph - N/A   Clear
5:53 AM 34.0 °F 28.0 °F 30.9 °F 89% 30.12 in 10.0 mi WNW 6.9 mph - N/A   Clear
6:16 AM 34.0 °F 27.2 °F 30.9 °F 89% 30.11 in 10.0 mi WNW 8.1 mph - N/A   Clear
6:53 AM 33.8 °F 26.4 °F 30.2 °F 87% 30.13 in 10.0 mi NW 9.2 mph - N/A   Clear
7:53 AM 33.8 °F 25.3 °F 30.2 °F 87% 30.14 in 10.0 mi NW 11.5 mph - N/A   Clear
8:53 AM 33.8 °F 27.0 °F 28.4 °F 81% 30.15 in 10.0 mi WNW 8.1 mph - N/A   Clear
9:53 AM 33.8 °F 27.0 °F 30.2 °F 87% 30.16 in 10.0 mi WNW 8.1 mph - N/A   Clear
10:53 AM 35.6 °F 28.6 °F 28.4 °F 75% 30.17 in 10.0 mi NW 9.2 mph - N/A   Partly Cloudy
11:53 AM 35.6 °F 28.0 °F 28.4 °F 75% 30.17 in 10.0 mi NW 10.4 mph - N/A   Clear
12:53 PM 35.6 °F 28.6 °F 28.4 °F 75% 30.19 in 10.0 mi NW 9.2 mph 19.6 mph N/A   Clear
1:53 PM 33.8 °F 26.4 °F 28.4 °F 81% 30.19 in 10.0 mi WNW 9.2 mph - N/A   Clear
2:53 PM 34.0 °F 26.0 °F 28.0 °F 79% 30.20 in 10.0 mi WNW 10.4 mph - N/A   Clear
3:53 PM 34.0 °F 26.0 °F 26.1 °F 73% 30.21 in 10.0 mi NW 10.4 mph - N/A   Clear
4:53 PM 33.1 °F 26.9 °F 26.1 °F 75% 30.22 in 10.0 mi NW 6.9 mph - N/A   Clear
5:53 PM 32.0 °F 27.5 °F 27.0 °F 82% 30.23 in 10.0 mi WNW 4.6 mph - N/A   Clear
6:53 PM 32.0 °F 26.4 °F 27.0 °F 82% 30.24 in 10.0 mi WNW 5.8 mph - N/A   Clear
7:53 PM 33.1 °F 26.9 °F 27.0 °F 78% 30.25 in 10.0 mi WNW 6.9 mph - N/A   Clear
8:53 PM 33.1 °F 25.5 °F 27.0 °F 78% 30.27 in 10.0 mi WNW 9.2 mph - N/A   Clear
9:53 PM 32.0 °F 27.5 °F 27.0 °F 82% 30.27 in 10.0 mi NW 4.6 mph - N/A   Clear
10:53 PM 30.9 °F 27.5 °F 27.0 °F 85% 30.29 in 10.0 mi West 3.5 mph - N/A   Clear
11:53 PM 30.9 °F 26.2 °F 28.0 °F 89% 30.31 in 10.0 mi NW 4.6 mph - N/A   Overcast